Photometre #741[NE_1.6] Arcachon AOT

File : 20220829_741.hum

29/08/2022,06:14:24,TEMP=22.1,BA=5.36,STAT.A=1.5,ExtBa=12.80
29/08/2022,06:18:00,TEMP=22.4,BA=5.36,STAT.A=1.5,ExtBa=12.72
29/08/2022,06:22:12,TEMP=22.6,BA=5.28,STAT.A=1.5,ExtBa=12.70
29/08/2022,06:27:10,TEMP=22.7,BA=5.28,STAT.A=1.5,ExtBa=12.70
29/08/2022,06:33:08,TEMP=22.9,BA=5.36,STAT.A=1.5,ExtBa=12.72
29/08/2022,06:40:28,TEMP=22.9,BA=5.40,STAT.A=1.5,ExtBa=12.73
29/08/2022,06:49:41,TEMP=23.0,BA=5.40,STAT.B=1.5,ExtBa=12.75
29/08/2022,06:54:05,TEMP=23.2,BA=5.24,STAT.A=1.5,ExtBa=12.72
29/08/2022,06:58:58,TEMP=23.2,BA=5.24,STAT.A=1.5,ExtBa=12.72
29/08/2022,07:04:28,TEMP=23.2,BA=5.24,STAT.A=1.5,ExtBa=12.72
29/08/2022,07:10:42,TEMP=23.2,BA=5.44,STAT.A=1.5,ExtBa=12.73
29/08/2022,07:17:49,TEMP=23.3,BA=5.44,STAT.C=1.5,ExtBa=12.73
29/08/2022,07:26:03,TEMP=23.4,BA=5.24,STAT.A=1.5,ExtBa=12.73
29/08/2022,07:35:40,TEMP=23.5,BA=5.52,STAT.A=1.5,ExtBa=12.74
29/08/2022,07:47:07,TEMP=23.7,BA=5.56,STAT.A=1.5,ExtBa=12.76
29/08/2022,08:01:00,TEMP=24.0,BA=5.60,STAT.A=1.5,ExtBa=12.76
29/08/2022,08:18:18,TEMP=24.6,BA=5.60,STAT.B=1.5,ExtBa=12.85
29/08/2022,08:54:43,TEMP=27.3,BA=5.60,STAT.B=2.0,ExtBa=13.33
29/08/2022,09:06:22,TEMP=28.1,BA=5.36,STAT.F,ExtBa=12.85
29/08/2022,09:21:20,TEMP=28.7,BA=5.48,STAT.D=2.0,ExtBa=12.72
29/08/2022,09:36:20,TEMP=28.8,BA=5.56,STAT.D=2.0,ExtBa=13.09
29/08/2022,09:51:20,TEMP=29.6,BA=5.56,STAT.D=2.0,ExtBa=13.10
29/08/2022,10:06:22,TEMP=29.8,BA=5.52,STAT.F,ExtBa=12.90
29/08/2022,10:21:20,TEMP=29.5,BA=5.52,STAT.D=2.0,ExtBa=12.86
29/08/2022,10:36:21,TEMP=29.3,BA=5.56,STAT.D=2.0,ExtBa=12.92
29/08/2022,10:51:21,TEMP=29.7,BA=5.56,STAT.D=2.0,ExtBa=12.94
29/08/2022,11:06:22,TEMP=29.8,BA=5.56,STAT.F,ExtBa=12.96
29/08/2022,11:21:21,TEMP=30.0,BA=5.56,STAT.D=2.0,ExtBa=12.98
29/08/2022,11:36:21,TEMP=30.3,BA=5.56,STAT.D=2.0,ExtBa=12.96
29/08/2022,11:51:21,TEMP=30.5,BA=5.56,STAT.D=2.0,ExtBa=12.89
29/08/2022,12:06:22,TEMP=30.2,BA=5.48,STAT.F,ExtBa=12.84
29/08/2022,12:21:21,TEMP=29.1,BA=5.44,STAT.D=2.0,ExtBa=12.82
29/08/2022,12:36:21,TEMP=28.7,BA=5.44,STAT.D=2.0,ExtBa=12.81
29/08/2022,12:51:21,TEMP=28.7,BA=5.40,STAT.D=2.0,ExtBa=12.80
29/08/2022,13:06:22,TEMP=27.8,BA=5.40,STAT.F,ExtBa=12.78
29/08/2022,13:21:21,TEMP=27.5,BA=5.44,STAT.D=2.0,ExtBa=12.79
29/08/2022,13:36:21,TEMP=27.7,BA=5.48,STAT.D=2.0,ExtBa=12.78
29/08/2022,13:51:21,TEMP=28.1,BA=5.60,STAT.D=2.0,ExtBa=13.25
29/08/2022,14:06:22,TEMP=29.7,BA=5.64,STAT.F,ExtBa=13.43
29/08/2022,14:21:21,TEMP=32.0,BA=5.60,STAT.D=2.0,ExtBa=13.06
29/08/2022,14:36:20,TEMP=32.4,BA=5.60,STAT.D=2.0,ExtBa=13.10
29/08/2022,14:51:20,TEMP=32.6,BA=5.56,STAT.D=2.0,ExtBa=12.97
29/08/2022,15:06:22,TEMP=32.0,BA=5.48,STAT.F,ExtBa=12.90
29/08/2022,15:18:00,TEMP=31.4,BA=5.44,STAT.B=2.0,ExtBa=12.87
29/08/2022,15:54:24,TEMP=30.2,BA=5.36,STAT.B=2.0,ExtBa=12.86
29/08/2022,16:11:42,TEMP=28.6,BA=5.44,STAT.A=2.0,ExtBa=12.84
29/08/2022,16:25:35,TEMP=28.2,BA=5.52,STAT.A=2.0,ExtBa=12.85
29/08/2022,16:37:02,TEMP=27.9,BA=5.52,STAT.A=2.0,ExtBa=12.80
29/08/2022,16:46:39,TEMP=27.9,BA=5.44,STAT.A=2.0,ExtBa=12.79
29/08/2022,16:54:53,TEMP=27.8,BA=5.40,STAT.C=2.0,ExtBa=12.77
29/08/2022,17:02:00,TEMP=27.7,BA=5.44,STAT.A=2.0,ExtBa=12.76
29/08/2022,17:08:14,TEMP=27.8,BA=5.44,STAT.A=2.0,ExtBa=12.75
29/08/2022,17:13:44,TEMP=27.9,BA=5.40,STAT.A=2.0,ExtBa=12.74
29/08/2022,17:18:37,TEMP=27.9,BA=5.40,STAT.A=2.0,ExtBa=12.73
29/08/2022,17:23:01,TEMP=27.9,BA=5.32,STAT.B=2.0,ExtBa=12.73
29/08/2022,17:32:13,TEMP=27.7,BA=5.36,STAT.A=2.0,ExtBa=12.75
29/08/2022,17:39:32,TEMP=27.6,BA=5.36,STAT.A=2.0,ExtBa=12.75
29/08/2022,17:45:30,TEMP=27.5,BA=5.32,STAT.A=2.0,ExtBa=12.74
29/08/2022,17:50:28,TEMP=27.5,BA=5.36,STAT.A=2.0,ExtBa=12.72
29/08/2022,17:54:40,TEMP=27.4,BA=5.36,STAT.A=2.0,ExtBa=12.71
29/08/2022,17:58:16,TEMP=27.4,BA=5.36,STAT.A=2.0,ExtBa=12.71